Location: Unspecified
(0.0000°N, 0.0000°E)
Time: 18:45:59
(UTC+00:00)

Vanguard 2 - Pass Details

Date: 27 November 2019
Orbit: 553 x 2938 km, 32.9° (Epoch: 06 December)

Event Time Altitude Azimuth Distance (km) Brightness Sun altitude
Rises 21:46:08 0° 206° (SSW) 4,740 12.1 -53.5°
Reaches altitude 10° 21:50:55 10° 185° (S) 4,224 11.5 -54.5°
Enters shadow 21:57:14 16° 152° (SSE) 4,259 11.3 -55.7°
